GFSNW_925_temp_195.txt.gz
Temp
6 6 6 6 6 7 7 7 7 8 8 7 6 7 10 12 13 13 13 12 12 12 12 12 13 12 13 13 12 13 12 9 8 10 11 11 11 10 10 11 10 9 7 11
5 5 5 6 6 6 7 7 8 8 8 7 7 8 10 11 12 13 13 12 11 11 12 12 11 12 14 12 13 13 11 9 8 11 11 11 11 11 10 10 10 11 9 10
4 5 5 6 6 6 6 7 6 6 7 7 8 8 9 10 12 11 11 12 12 12 12 11 11 12 13 13 12 13 11 9 10 10 12 11 10 10 10 10 8 10 11 12
4 4 4 5 5 6 6 7 6 6 7 8 9 9 8 9 10 11 11 12 11 12 11 11 10 11 11 12 12 11 10 9 8 9 9 9 9 9 9 8 9 9 11 9
4 4 4 4 5 5 6 5 6 7 6 7 6 7 8 9 10 10 11 11 10 10 10 11 10 10 11 10 11 10 8 9 8 10 10 9 9 10 9 8 9 8 9 8
4 4 4 4 4 4 4 5 5 6 7 8 8 9 8 9 9 10 10 10 9 9 9 10 9 9 10 10 11 8 8 7 8 9 9 9 10 11 11 11 9 10 10 10
4 4 4 4 4 4 5 4 4 3 4 6 7 7 7 7 8 7 8 8 8 9 9 8 8 6 7 8 9 8 8 7 8 7 8 11 14 13 12 11 11 10 10 10
4 4 4 4 5 4 4 4 4 2 3 3 4 5 6 6 6 6 7 8 8 7 9 8 8 8 9 10 8 6 7 8 8 7 7 10 14 12 12 13 13 11 12 11
4 4 4 4 5 4 4 4 4 4 4 3 4 4 4 4 5 5 6 8 8 8 7 7 9 9 10 11 10 6 7 8 8 6 9 11 14 13 13 13 12 12 11 10
4 4 4 4 4 4 4 3 4 4 4 4 5 4 4 5 5 5 6 6 7 7 6 7 7 9 9 9 10 7 7 6 8 8 8 9 11 12 12 14 14 12 11 10
3 3 4 4 4 4 3 3 3 3 3 3 4 5 4 4 4 4 5 6 5 5 7 7 8 7 7 8 9 7 8 7 6 6 7 8 11 11 13 13 11 12 10 10
3 3 3 3 3 3 3 3 3 3 2 3 3 3 4 5 5 5 4 5 5 7 5 5 5 7 4 7 9 7 9 10 8 8 9 10 11 11 12 11 11 12 11 10
2 2 3 3 3 3 3 3 3 3 2 3 3 3 4 4 4 4 4 5 5 5 6 6 6 6 6 7 6 9 9 8 9 10 13 10 10 11 11 11 11 12 11 10
2 2 2 3 3 3 3 3 3 2 2 1 1 5 4 5 4 4 4 5 6 5 4 5 7 6 7 6 7 7 9 8 9 9 10 10 10 9 11 11 10 11 11 10
2 2 2 2 2 2 2 2 2 2 2 -1 0 3 4 4 5 4 4 4 4 4 4 4 5 6 6 6 5 6 7 9 9 9 11 11 10 9 10 9 9 9 10 11
1 1 2 2 2 2 2 1 2 3 1 1 -1 2 2 4 4 4 4 4 4 4 4 4 5 6 5 5 6 9 10 8 8 11 9 8 7 7 8 8 8 9 9 9
1 1 1 2 1 2 1 1 3 3 1 1 0 0 2 4 4 3 4 5 4 4 4 4 4 5 6 5 5 8 9 8 7 6 7 8 8 8 8 7 8 8 8 7
1 1 1 1 1 1 1 1 1 1 1 1 1 -0 1 3 2 3 4 4 3 2 4 3 5 5 5 4 7 7 8 9 9 7 5 7 7 6 6 6 5 7 6 5
1 1 1 1 1 -0 1 2 1 1 1 -1 -2 1 -0 2 4 3 3 4 4 3 3 5 5 5 5 6 7 7 8 8 9 9 5 4 5 5 5 5 5 6 5 5
1 1 -1 -0 2 0 1 2 1 1 1 -0 0 1 3 3 3 4 4 3 4 5 4 3 4 5 7 7 7 5 6 8 7 4 2 3 3 4 4 4 4 4 4 3
1 -3 -2 1 1 0 -0 2 2 2 1 1 2 3 3 3 4 4 4 5 5 5 3 5 4 6 7 7 7 7 6 5 5 6 7 4 4 3 3 3 3 3 3 2
0 0 0 -0 -1 -0 1 3 3 3 4 3 4 3 4 3 4 4 4 5 4 5 4 5 4 7 4 4 7 7 7 2 1 2 2 2 2 2 2 2 0 1 2 2
-0 -1 -1 -2 -1 1 2 2 3 3 2 3 3 4 3 2 2 4 4 5 5 3 5 5 2 1 1 -0 2 -0 1 1 1 1 1 1 1 1 1 -0 0 1 1 1
-1 -1 -1 0 0 0 0 -1 -0 -0 -0 1 1 2 3 3 4 4 5 3 3 5 5 3 -0 0 -0 -0 -1 1 -0 -1 -1 -2 -2 -1 0 -1 -0 0 0 0 -0 0
-1 -3 -1 -0 -2 -2 -2 -2 -2 -1 -1 -0 1 2 3 4 4 4 3 3 3 3 1 0 -1 -1 -1 -1 -1 -1 -1 -1 -2 -2 -2 -2 -2 -2 -2 -1 -0 0 -0 -0
-2 -3 -4 -3 -4 -4 -3 -2 -2 -2 -1 -2 -0 3 5 5 4 4 2 1 -0 -0 -1 -1 -2 -2 -2 -2 -2 -3 -3 -3 -3 -3 -3 -3 -2 -3 -3 -2 -1 -1 -1 -1
-3 -4 -2 -2 -2 -2 -2 -2 -2 -2 -2 -0 2 3 2 1 1 1 0 -1 -1 -1 -2 -3 -3 -3 -3 -3 -3 -3 -3 -3 -4 -4 -4 -4 -3 -3 -3 -4 -4 -3 -2 -2

GFSNW_925_temp_201.txt.gz
Temp
5 5 6 6 6 7 8 6 6 8 8 6 3 6 8 9 10 12 12 12 11 11 11 11 11 12 12 12 10 12 10 8 8 10 10 10 10 10 10 9 9 8 9 11
5 5 5 5 5 5 5 5 4 7 8 6 5 6 8 9 10 11 11 11 11 11 11 11 11 12 12 11 12 12 10 9 8 11 11 10 10 9 9 9 9 10 10 12
4 4 4 4 5 5 6 6 4 4 8 7 7 8 8 8 9 9 10 10 11 10 10 10 10 11 11 10 11 12 11 8 9 9 11 10 11 10 10 9 8 9 10 12
5 4 4 4 4 5 6 4 4 5 5 6 7 8 8 8 8 10 9 9 7 8 9 10 10 9 8 10 10 9 9 8 7 8 8 9 9 9 10 9 9 9 10 8
4 4 4 4 4 5 5 3 5 6 7 5 6 7 8 8 8 9 9 8 7 7 8 8 7 7 8 8 9 10 7 8 8 9 10 8 8 10 10 10 9 8 9 9
4 4 4 4 4 4 4 3 4 3 4 6 7 7 7 7 7 8 7 7 6 7 7 8 7 6 7 8 8 8 7 7 7 8 8 10 10 10 10 10 8 8 8 10
4 4 4 4 4 4 4 4 3 2 3 3 5 5 6 6 6 5 6 6 6 8 5 6 6 4 5 6 7 8 6 6 7 8 7 10 14 10 11 11 11 8 9 9
4 4 4 4 4 4 4 4 4 3 3 3 4 4 4 4 4 4 5 6 6 5 6 5 6 7 7 7 5 5 6 6 7 7 6 8 13 13 13 13 14 11 9 9
4 4 4 4 4 4 4 4 4 3 3 3 4 3 4 3 3 3 4 5 5 4 4 5 6 6 8 8 7 4 4 6 7 5 7 10 13 12 11 12 13 12 10 11
4 4 4 4 4 4 4 3 3 3 3 3 3 3 3 3 3 2 3 4 4 5 6 7 7 6 7 7 8 6 5 5 6 6 6 7 9 9 11 13 13 10 11 11
3 3 3 3 3 4 3 3 3 3 3 3 3 4 3 2 3 3 3 3 4 4 5 6 6 6 6 7 7 6 6 5 5 6 6 7 9 11 13 11 10 11 11 11
3 3 3 3 3 3 2 2 2 2 2 2 3 4 4 4 4 3 3 4 3 3 4 4 4 5 5 5 7 6 6 7 6 7 8 9 10 11 10 9 8 9 11 11
2 2 2 2 2 2 2 2 2 2 0 0 1 2 4 3 3 3 3 3 4 3 2 2 3 3 5 5 4 5 7 6 7 8 10 7 7 9 8 9 9 8 8 9
2 2 2 2 2 2 2 2 2 2 1 1 1 3 3 4 4 3 2 3 4 3 2 3 3 4 3 2 5 4 6 5 5 6 7 8 8 9 9 8 7 7 7 9
2 1 1 1 1 2 2 2 2 2 1 -1 1 2 2 3 3 2 2 2 2 3 2 2 2 3 3 3 2 3 5 6 7 8 8 7 8 8 7 8 8 7 7 7
1 1 1 1 1 1 1 -0 1 2 1 0 -1 0 1 3 3 2 2 1 2 2 3 2 3 4 2 2 3 5 6 6 7 7 8 8 8 7 6 7 8 8 8 7
1 1 1 1 1 1 1 -0 2 1 1 -0 -1 -3 -0 2 1 -0 -0 1 1 2 2 2 3 3 4 3 3 5 6 6 7 7 7 6 5 7 6 5 7 7 7 7
1 1 1 1 1 1 1 1 1 1 1 1 -1 -3 -3 2 0 -2 -1 -1 -1 -2 1 2 3 3 3 3 4 6 6 6 6 7 6 6 7 6 5 5 5 6 5 5
1 1 1 1 -0 -1 0 0 0 0 1 -3 -3 -4 -5 -1 -1 -0 1 0 1 1 2 3 3 4 3 4 5 6 6 6 6 6 6 6 6 6 5 3 4 4 5 4
1 1 -0 -5 0 -0 0 1 -2 -0 -0 -0 -3 -4 -3 -2 -2 -1 1 2 2 1 3 2 3 4 6 6 6 6 6 4 5 4 4 5 4 4 4 3 4 4 5 4
0 -2 -7 -0 -0 -0 -1 -7 -2 -4 -2 -0 -1 -1 -1 0 1 1 2 1 3 3 2 2 1 2 2 0 -1 -0 -1 1 3 5 6 6 5 5 5 5 3 3 3 2
0 -0 -0 -1 -2 -3 -3 -5 -4 0 0 1 1 0 0 -0 1 1 -0 1 1 2 0 1 2 1 -0 -1 -1 -1 -1 -1 -0 1 3 5 5 3 2 2 2 2 3 4
-0 -1 -3 -3 -5 -4 -5 -4 -1 -0 -0 -0 -1 -1 -0 1 0 1 2 4 4 2 4 4 0 -0 -1 -1 -1 -1 -1 -1 -1 -0 1 3 1 3 2 1 1 2 1 2
-7 -8 -7 -4 -7 -5 -4 -4 -2 -1 -2 -1 -2 -1 0 2 2 2 4 3 3 4 4 2 -1 -2 -2 -2 -2 -2 -2 -3 -2 -2 -1 -0 0 -1 -0 0 0 0 -1 -0
-6 -7 -7 -8 -5 -6 -6 -8 -5 -5 -7 -5 -3 -2 -0 1 4 4 3 2 3 1 -0 -1 -2 -3 -3 -3 -3 -3 -3 -3 -3 -3 -3 -3 -4 -3 -3 -3 -1 -1 -1 -1
-3 -5 -4 -6 -8 -9 -9 -9 -9 -8 -6 -5 -4 -2 -1 2 3 3 1 1 -0 -1 -2 -3 -3 -4 -4 -4 -4 -4 -4 -4 -4 -4 -4 -4 -4 -4 -4 -4 -4 -4 -4 -4
-3 -7 -6 -6 -6 -5 -6 -5 -5 -3 -4 -3 -2 -1 1 0 1 -0 -1 -2 -2 -3 -3 -4 -4 -4 -4 -4 -4 -4 -4 -4 -4 -4 -4 -4 -5 -5 -4 -5 -5 -5 -5 -5

GFSNW_925_temp_204.txt.gz
Temp
5 5 5 5 6 7 8 7 10 8 9 11 9 11 10 9 12 12 12 13 13 13 13 14 14 14 14 13 13 13 13 12 12 14 13 13 13 14 14 13 12 12 12 13
5 5 5 5 4 5 5 7 7 8 8 11 10 10 10 10 11 12 12 12 12 12 13 13 13 13 13 12 13 13 13 13 12 15 12 12 12 12 13 13 12 11 12 16
5 5 4 4 4 5 6 7 9 9 9 9 8 9 10 10 11 11 11 11 12 12 12 13 13 12 12 12 12 12 12 13 13 14 15 15 13 14 13 13 11 13 13 15
5 4 4 4 5 5 6 6 7 7 8 9 8 9 10 10 10 11 10 10 9 10 11 11 11 11 11 12 11 11 12 12 11 12 12 12 12 12 12 12 12 12 15 13
4 4 4 4 5 5 5 7 7 8 8 8 8 8 9 9 9 9 10 9 8 9 10 10 10 9 10 10 12 11 11 11 11 10 12 12 12 13 13 13 12 12 13 12
4 4 4 4 5 5 4 3 4 6 7 7 8 9 8 7 7 8 8 6 7 8 9 9 9 9 9 10 10 10 11 11 11 11 11 12 14 15 14 13 13 13 12 15
4 4 4 4 4 4 4 4 4 6 7 6 7 7 6 6 7 6 7 8 7 9 8 8 9 9 10 10 10 11 11 10 9 9 11 11 16 15 13 14 14 13 13 13
4 4 4 4 4 4 4 4 4 5 5 6 6 6 6 6 6 6 6 7 8 7 7 7 9 10 10 11 9 8 10 10 10 10 11 13 15 13 14 14 15 14 13 14
4 4 4 4 3 3 4 4 4 4 4 6 6 5 5 6 6 5 5 7 6 5 7 7 7 9 10 11 8 7 7 9 10 10 10 12 15 13 13 13 16 13 13 13
4 4 4 4 4 4 4 4 3 3 4 5 5 5 5 5 5 5 5 5 6 6 7 8 8 9 10 10 10 8 7 7 8 9 10 12 14 12 12 14 14 13 13 13
3 3 4 4 4 3 3 3 3 3 3 4 4 5 4 4 5 5 6 6 5 6 6 8 9 9 10 8 10 9 9 8 8 8 8 9 11 12 13 12 13 12 13 12
3 3 3 3 3 3 3 3 3 2 2 3 3 4 4 5 5 5 5 5 5 6 5 5 5 6 7 6 8 8 9 11 10 10 11 12 11 12 12 11 12 12 11 12
3 2 2 2 2 2 2 3 2 2 2 3 2 3 3 3 3 4 3 5 5 6 7 6 5 4 7 7 8 7 9 8 9 10 12 11 11 12 11 10 12 11 10 10
2 2 2 2 2 2 2 2 2 2 2 1 3 3 2 4 3 2 3 4 5 5 5 4 3 4 7 6 7 7 9 8 8 9 9 10 12 11 11 10 11 12 11 10
2 2 1 1 1 1 1 1 1 1 2 1 2 2 3 2 3 2 2 2 3 3 3 3 3 4 4 5 5 5 7 7 7 8 11 11 12 12 12 9 9 10 10 11
2 2 1 1 1 1 1 1 1 1 0 1 0 1 1 2 2 2 2 2 3 2 2 3 4 4 4 4 5 7 8 7 8 8 9 10 10 10 10 9 9 9 10 10
1 1 1 1 1 1 1 2 1 1 1 0 -1 0 2 1 1 1 2 2 2 2 2 2 3 4 4 3 3 6 7 8 8 8 8 8 9 8 9 9 9 9 8 8
1 1 1 1 1 1 1 1 1 1 0 1 -1 -0 0 1 3 3 2 2 2 2 3 4 4 4 3 2 5 6 7 7 7 8 8 8 9 9 8 7 7 8 9 9
1 1 1 1 -0 -0 0 0 0 0 1 0 -1 -1 1 1 2 2 2 2 1 3 1 3 4 4 3 5 6 7 7 7 7 8 8 8 8 8 8 8 8 7 7 8
1 1 0 -1 -0 -0 0 -0 -1 -0 -0 -0 -0 -0 0 1 2 2 3 3 3 3 4 4 3 4 6 7 3 2 2 2 2 3 4 6 6 7 7 8 8 7 7 7
0 -2 -2 -1 -0 -0 -1 -2 -1 -0 -1 1 1 0 0 2 0 1 3 2 3 4 5 4 5 4 2 2 1 1 1 1 1 1 2 3 4 6 7 7 7 6 6 6
0 -0 -1 -1 -1 -2 -2 -3 -2 -1 1 1 1 1 1 1 0 1 1 2 2 3 3 4 4 2 1 -0 -0 -0 -0 -0 -0 0 1 1 2 3 6 7 6 5 5 5
-1 -2 -3 -2 -4 -3 -2 -2 -0 0 0 0 0 -1 0 0 1 1 1 2 3 3 4 5 2 -0 -1 -1 -1 -1 -1 -1 -1 -1 -1 -0 1 1 3 5 5 5 4 4
-4 -5 -6 -4 -4 -4 -2 -1 -1 0 -0 -1 -1 -2 -1 1 1 2 3 4 4 5 5 2 0 -2 -2 -2 -2 -2 -3 -3 -3 -3 -2 -2 1 2 2 3 2 2 2 0
-5 -5 -5 -5 -3 -3 -3 -4 -3 -2 -3 -3 -2 -2 -1 0 2 3 3 5 4 1 1 -0 -2 -3 -3 -3 -3 -3 -3 -3 -3 -3 -3 -2 -2 -2 -2 -2 -1 -0 -0 -1
-5 -5 -4 -5 -4 -4 -4 -5 -4 -4 -3 -3 -4 -3 -2 0 2 2 0 1 0 -0 -2 -3 -3 -3 -4 -4 -4 -4 -4 -4 -4 -4 -4 -4 -4 -4 -4 -4 -4 -4 -3 -3
-3 -5 -4 -3 -4 -3 -3 -3 -3 -3 -3 -3 -2 -1 -0 0 1 0 -1 -1 -2 -3 -3 -4 -4 -5 -5 -4 -4 -4 -4 -4 -4 -4 -4 -4 -4 -4 -4 -4 -5 -5 -5 -5

GFSNW_925_temp_207.txt.gz
Temp
6 6 5 5 5 7 8 10 13 9 9 14 13 14 12 11 13 14 14 14 15 15 15 15 16 16 16 15 15 15 16 15 14 16 15 14 15 16 16 14 14 13 12 14
5 5 5 5 5 6 7 10 11 10 10 14 14 13 12 12 12 13 13 14 14 14 14 14 15 15 14 14 14 15 15 15 14 17 14 13 14 15 15 15 14 12 13 16
5 5 5 5 5 6 6 11 12 12 12 11 11 11 12 12 12 12 12 13 13 13 14 15 14 14 14 13 13 12 13 14 14 14 16 16 14 15 15 15 13 14 15 16
5 5 5 5 5 6 6 10 11 10 12 11 11 11 11 11 11 12 12 12 11 11 11 13 13 13 13 14 13 13 13 13 14 14 14 13 13 13 14 13 14 13 15 16
5 5 5 5 5 6 7 10 10 10 11 10 10 10 11 11 11 11 12 11 9 10 10 11 10 9 11 12 13 13 13 12 13 12 13 14 12 13 14 15 15 14 15 15
4 5 5 5 5 5 7 5 6 8 9 10 10 11 10 8 8 9 9 8 8 9 10 10 10 10 10 10 10 10 11 10 10 10 13 13 13 16 16 16 15 16 14 16
4 4 4 4 4 5 5 5 7 8 9 9 10 9 8 8 9 8 9 9 9 10 10 10 10 10 10 10 11 11 10 11 10 9 11 11 17 16 16 16 16 16 15 15
5 4 4 4 4 4 5 4 6 7 8 9 8 8 8 8 9 8 8 8 9 9 8 8 10 12 11 11 12 12 12 11 10 10 12 14 15 14 15 15 15 15 14 15
5 4 4 4 4 4 4 4 4 6 6 8 8 7 7 7 8 8 8 9 8 8 8 9 8 10 12 12 10 9 9 11 11 11 9 12 14 14 14 15 15 14 14 14
4 4 4 4 4 4 4 4 4 5 5 7 7 7 7 8 7 7 8 8 7 8 8 8 9 10 12 10 11 10 8 8 8 10 10 12 15 13 13 14 13 13 14 14
4 4 4 4 4 4 4 3 3 3 3 5 5 6 6 7 6 6 8 7 7 7 7 8 10 10 11 9 11 11 10 9 8 8 8 9 13 14 13 12 13 13 13 13
3 3 3 3 4 4 4 3 2 2 3 5 4 5 5 6 6 6 6 6 7 7 6 7 7 7 8 9 8 11 10 12 11 11 12 13 13 12 13 12 12 12 12 12
3 3 3 3 2 3 3 3 2 2 3 4 5 5 5 4 4 4 5 6 6 6 7 6 6 5 7 6 8 10 10 10 9 10 12 13 12 12 13 13 12 12 12 12
3 2 2 2 2 2 2 2 2 2 3 2 5 4 4 4 4 4 4 5 5 6 5 4 5 5 6 6 7 8 9 9 8 9 10 11 12 14 13 13 12 12 12 11
2 2 2 2 2 2 2 1 1 1 2 3 3 4 4 4 4 3 4 4 5 5 4 4 4 5 5 6 6 6 7 7 7 8 10 11 11 12 11 11 11 11 11 10
2 2 1 1 1 1 2 2 1 1 1 2 2 4 3 3 3 4 4 4 4 4 3 2 4 5 5 4 5 7 8 9 9 8 9 9 9 9 10 10 10 10 10 10
1 1 1 1 1 1 2 3 2 1 1 2 1 2 4 3 3 4 4 4 4 3 2 2 4 5 5 4 3 6 7 8 8 9 9 8 9 9 10 9 10 10 10 9
1 1 1 1 1 1 1 1 1 1 1 2 1 1 2 3 4 4 4 4 3 2 2 4 4 5 4 2 5 7 8 8 8 8 9 8 9 9 9 9 9 9 9 9
1 1 1 1 0 1 1 0 0 0 1 1 1 1 2 4 4 4 4 4 2 4 2 3 5 4 3 5 6 4 4 4 4 4 5 6 7 8 9 9 8 8 9 9
1 1 1 1 0 -0 0 0 1 1 1 1 1 2 1 3 3 2 3 4 4 3 4 5 3 4 6 3 2 2 2 2 2 1 1 3 4 5 6 7 8 9 9 9
0 -0 0 -1 -0 -0 1 -0 -0 0 0 2 1 2 2 4 1 2 3 3 4 3 5 4 5 5 1 2 1 1 1 1 1 1 2 2 2 3 3 4 5 7 8 8
-0 -0 -1 -1 -0 -1 -1 -1 -1 -1 1 2 2 2 2 2 2 1 2 2 3 3 4 4 5 1 0 -0 -0 -0 -0 -0 -0 -0 0 1 1 2 2 3 3 5 7 7
-1 -1 -1 -1 -2 -1 -1 -1 0 1 1 1 1 0 1 1 1 2 2 2 2 5 4 6 2 0 -0 -1 -1 -1 -1 -1 -2 -2 -2 -2 -1 -0 1 2 3 4 6 6
-1 -2 -3 -2 -2 -1 1 1 1 1 1 1 0 -0 0 1 1 2 3 4 4 5 4 2 1 -1 -2 -2 -2 -2 -3 -2 -2 -3 -3 -3 -1 -0 1 1 3 5 5 4
-2 -2 -1 -3 -0 -1 -0 -1 -1 0 -0 -1 -1 -1 -1 -0 1 3 4 4 4 2 1 0 -1 -3 -4 -4 -4 -4 -4 -4 -3 -3 -3 -3 -3 -2 -2 -1 1 1 1 1
-2 -3 -2 -2 -2 -0 -1 -1 -1 -1 -1 -2 -2 -2 -1 -0 1 3 2 1 1 0 -1 -2 -2 -3 -4 -4 -4 -5 -4 -4 -4 -4 -4 -4 -4 -4 -4 -4 -4 -3 -3 -3
-2 -2 -2 -1 -2 -1 -0 -0 -0 -2 -2 -2 -1 -1 -0 0 2 1 -0 -0 -1 -2 -2 -3 -4 -5 -5 -5 -5 -5 -5 -5 -5 -5 -5 -4 -4 -4 -4 -4 -5 -5 -4 -4

GFSNW_925_temp_210.txt.gz
Temp
6 6 6 6 6 8 9 10 11 10 10 11 13 13 12 11 14 15 14 14 14 14 14 14 15 16 14 14 14 14 13 13 11 13 14 14 14 14 15 9 10 9 8 11
6 6 6 6 6 6 6 10 11 11 10 12 12 13 13 12 12 13 13 14 14 14 13 13 15 14 14 13 13 12 13 12 9 13 12 13 13 14 14 13 12 10 8 11
6 6 6 6 6 6 6 9 10 11 11 11 11 12 13 12 12 12 13 12 13 12 12 13 13 14 13 13 13 12 11 12 11 11 13 13 12 13 13 12 10 11 12 13
6 6 5 6 6 6 6 10 10 9 11 11 11 12 12 12 12 12 13 12 11 11 11 12 12 12 12 13 13 12 11 10 11 12 12 12 12 12 12 11 12 10 12 12
6 5 5 6 6 6 7 8 9 10 10 11 10 10 12 11 11 11 11 10 9 10 9 10 9 10 10 10 12 12 12 9 9 9 11 11 11 12 12 12 12 12 13 13
5 5 5 5 6 6 8 6 7 7 9 10 10 11 10 9 9 9 9 8 8 8 9 8 8 9 9 9 9 9 9 9 9 9 10 10 9 13 13 14 14 14 12 13
5 5 5 5 5 5 6 6 7 8 9 9 10 10 9 9 9 8 9 8 8 9 8 8 8 8 8 8 8 9 8 9 9 7 8 7 13 14 13 13 14 14 13 13
4 5 5 5 5 5 5 5 6 7 7 8 8 9 8 8 8 8 8 9 8 8 7 6 7 9 9 9 9 8 9 8 7 7 8 10 12 12 12 11 12 12 12 12
5 5 5 4 4 4 4 4 5 6 5 7 8 7 8 6 7 7 8 8 8 7 6 7 7 8 9 9 8 9 8 9 8 8 8 9 12 12 12 12 11 11 11 11
5 5 5 4 4 4 4 4 4 5 5 6 7 6 6 7 6 6 7 7 7 8 5 6 7 7 10 8 9 7 7 8 7 7 8 10 11 11 12 12 9 11 11 10
4 4 4 5 4 4 4 3 4 4 3 4 6 6 6 6 6 5 6 5 6 5 5 6 7 7 7 7 9 8 9 7 7 7 8 8 10 12 10 10 11 10 10 9
4 4 4 4 4 4 4 3 3 3 3 4 4 4 5 5 5 5 5 5 5 6 3 3 4 5 5 5 4 8 7 9 7 7 9 11 11 11 11 10 10 11 9 9
3 3 4 3 3 3 3 3 3 2 3 3 4 4 5 5 4 4 4 4 5 5 5 3 3 3 4 2 4 5 7 7 8 6 9 9 9 9 10 11 10 10 10 10
3 3 3 2 2 2 3 2 2 2 3 0 3 5 4 4 4 4 4 4 4 5 3 2 2 3 4 3 4 4 5 5 6 6 7 8 9 9 8 8 8 8 9 8
3 2 2 2 2 2 2 1 1 2 2 1 2 3 4 4 4 4 4 4 3 2 2 0 1 2 3 3 3 3 5 5 4 5 7 7 7 8 8 7 7 7 7 8
2 2 2 2 1 2 2 1 1 1 1 0 -1 3 3 3 3 4 4 3 3 2 2 1 2 3 2 1 1 5 5 6 6 6 7 7 7 8 8 7 7 7 7 7
2 2 1 1 1 2 2 1 2 2 1 0 -2 -1 3 3 3 4 3 4 2 2 2 0 1 2 3 2 2 4 5 5 5 6 6 5 6 6 7 7 7 7 7 8
1 1 1 1 1 1 2 0 1 1 1 1 -2 -2 -0 3 2 1 3 2 2 1 0 1 1 2 2 0 3 4 3 3 3 3 3 3 4 4 5 5 6 6 6 7
1 1 1 1 1 1 -0 0 0 1 1 -1 -1 -2 -2 2 1 2 2 2 1 1 0 1 3 1 1 2 1 1 1 1 1 1 1 1 1 2 3 4 4 4 6 6
1 1 1 -0 0 0 0 0 -0 -0 -0 -1 -2 -0 -2 0 -1 0 0 1 2 2 2 2 0 2 1 1 1 1 0 -0 -0 -2 -1 -1 -1 -0 0 1 2 2 3 4
1 -0 -1 -1 -0 0 0 -4 -4 -4 -1 -1 -0 -0 -2 1 -0 1 1 0 -0 0 2 2 2 2 -0 -0 -1 -1 -1 -1 -2 -1 -1 -2 -1 -1 -1 -0 0 1 2 3
0 -0 -1 -1 -1 -4 -4 -5 -2 -3 -1 0 0 -1 -1 -2 1 -0 -2 -1 -0 -1 2 2 2 -0 -1 -2 -2 -2 -2 -2 -2 -2 -3 -3 -3 -2 -2 -2 -1 -0 1 2
-0 -1 -4 -5 -5 -3 -4 -6 -4 -1 -1 -1 -2 -3 -3 -2 -1 -1 -1 -2 -2 -0 2 2 0 -1 -2 -3 -3 -4 -3 -3 -4 -4 -3 -3 -3 -3 -2 -2 -1 -1 0 2
-4 -6 -6 -6 -6 -5 -3 -0 -2 -2 -2 -3 -4 -1 -4 -1 -1 -2 -1 -1 -0 1 3 1 -1 -3 -4 -4 -4 -4 -5 -4 -4 -4 -4 -4 -4 -3 -3 -3 -1 -0 1 2
-5 -5 -5 -7 -3 -3 -1 -4 -4 -3 -4 -3 -4 -5 -3 -2 -2 -2 -1 -0 3 1 -0 -1 -3 -4 -5 -5 -5 -5 -5 -5 -5 -5 -5 -4 -4 -4 -4 -4 -3 -2 -2 -1
-6 -5 -6 -3 -4 -4 -5 -5 -4 -4 -2 -5 -3 -4 -3 -5 -2 -0 1 0 -1 -1 -3 -3 -4 -5 -5 -6 -6 -6 -6 -6 -6 -6 -6 -5 -5 -4 -5 -5 -5 -4 -4 -3
-5 -6 -4 -4 -5 -5 -4 -3 -2 -2 -5 -6 -5 -4 -5 -4 -1 1 -3 -2 -2 -2 -3 -4 -5 -6 -6 -6 -6 -7 -7 -6 -6 -7 -6 -7 -6 -5 -5 -5 -5 -5 -5 -5

GFSNW_925_temp_216.txt.gz
Temp
10 8 8 8 8 9 9 7 10 11 11 8 5 9 11 11 11 11 12 12 12 12 11 11 12 12 12 12 12 12 11 9 8 10 12 12 11 12 11 8 9 6 5 9
9 8 8 8 8 8 7 5 5 11 10 9 7 9 11 11 11 11 11 11 11 11 11 11 11 12 12 11 12 11 11 9 7 10 11 12 12 12 12 10 8 9 7 11
9 8 8 8 8 8 7 5 8 7 6 6 8 9 10 11 11 11 11 11 10 10 10 10 10 10 10 9 11 12 11 8 9 9 11 9 9 10 10 10 10 9 10 11
9 8 8 8 8 8 7 4 7 7 8 7 8 9 9 10 10 10 10 9 9 9 9 9 9 8 8 10 11 10 9 8 8 8 8 8 8 8 9 9 9 9 10 10
9 8 8 8 7 7 7 5 6 5 5 7 8 8 8 9 8 9 9 9 8 8 7 8 7 6 7 7 8 8 7 7 8 8 8 7 7 8 8 8 9 9 9 9
8 8 8 7 7 7 6 5 5 4 6 6 6 7 8 8 8 8 8 7 6 6 6 6 6 5 6 7 6 6 6 7 7 6 6 7 7 8 8 9 10 8 8 9
8 7 7 7 7 7 7 6 5 3 7 5 6 8 8 7 7 7 7 7 7 7 6 5 5 4 4 5 5 5 5 6 6 4 5 4 8 9 9 9 9 8 8 8
6 6 6 6 6 6 6 6 5 2 5 4 6 7 7 7 6 6 7 7 6 6 5 4 5 6 7 7 5 4 5 4 4 4 4 6 8 10 10 9 9 8 8 8
5 5 6 6 6 5 6 6 6 4 2 4 6 6 6 4 4 4 6 6 7 6 4 4 5 6 7 7 7 4 4 4 4 4 5 6 9 8 8 9 7 6 8 7
4 5 5 5 5 5 5 5 5 5 2 3 5 4 5 5 4 4 4 5 5 5 4 5 5 5 5 5 5 5 4 3 4 4 6 6 6 6 7 8 5 6 6 7
4 4 4 4 4 4 4 4 4 5 3 3 4 5 5 4 3 3 4 4 4 3 4 4 4 4 3 3 4 5 5 5 4 4 5 5 5 6 5 5 6 6 6 6
4 3 4 4 4 3 3 3 3 4 4 3 4 4 4 5 5 3 3 3 3 3 1 -1 1 3 0 1 2 3 4 4 3 4 5 7 7 6 5 6 6 6 6 7
3 3 3 3 3 3 3 3 3 4 2 2 2 3 4 4 4 4 2 2 3 2 1 0 1 1 1 0 0 2 3 2 2 3 4 4 4 5 6 6 5 5 6 6
3 3 3 3 3 3 3 3 3 3 1 0 2 3 4 3 4 4 4 3 3 2 0 1 -0 1 1 0 1 0 2 2 2 1 2 3 3 4 4 4 4 4 4 5
3 3 3 3 3 3 3 3 2 2 3 1 1 2 3 3 3 3 3 3 1 -0 -0 -1 -0 -0 1 -1 -1 -1 1 1 1 0 2 1 2 3 3 1 1 1 2 2
3 3 2 2 3 2 3 0 2 2 2 -1 -1 0 1 3 3 2 2 1 -1 -1 -0 -2 -1 -0 -0 -3 -1 1 -0 -0 1 -1 0 0 1 1 1 -0 0 1 1 2
2 2 1 1 1 2 2 1 2 2 2 -1 -4 -2 1 2 2 1 0 1 -1 -1 -2 -3 -1 -0 0 -1 -1 -2 -1 -1 -1 0 -2 -1 -0 -2 -1 -1 -1 -1 -1 0
1 1 1 1 2 2 1 1 1 1 1 -1 -6 -4 -2 1 0 -0 -1 -0 -1 -1 -1 -1 -1 -0 -1 -1 -1 -1 -1 -2 -2 -2 -2 -3 -2 -2 -2 -2 -2 -2 -2 -1
2 1 1 1 1 0 -0 0 1 1 0 -5 -4 -4 -4 -1 -1 -1 -1 -0 -2 -1 -2 -1 1 -0 -1 -1 -2 -3 -2 -3 -4 -4 -4 -3 -3 -3 -3 -3 -3 -3 -3 -2
1 1 1 -2 -1 -0 -0 0 -3 -5 -4 -5 -4 -4 -3 -3 -5 -4 -3 -5 -1 -2 -0 0 -1 1 -1 -2 -2 -2 -4 -4 -4 -5 -5 -4 -4 -4 -4 -4 -3 -3 -2 -2
1 -1 -3 -1 -0 0 -2 -5 -6 -7 -6 -4 -3 -3 -4 -2 -3 -4 -2 -7 -4 -5 -1 1 -0 -0 -2 -2 -3 -3 -4 -5 -5 -5 -5 -5 -5 -5 -5 -4 -3 -3 -3 -3
1 -0 -0 -0 -3 -5 -4 -7 -6 -5 -3 -5 -4 -3 -3 -4 -3 -2 -6 -5 -6 -4 -1 1 -0 -2 -3 -4 -4 -5 -5 -5 -6 -6 -6 -6 -6 -6 -5 -5 -4 -4 -4 -4
1 -1 -5 -4 -6 -5 -4 -6 -6 -6 -4 -5 -5 -5 -6 -5 -3 -4 -5 -4 -4 -4 -4 -0 -3 -3 -4 -5 -5 -6 -6 -6 -6 -6 -6 -6 -6 -6 -6 -5 -5 -5 -4 -3
-4 -4 -4 -5 -5 -5 -5 -4 -4 -4 -5 -7 -8 -8 -6 -8 -4 -4 -3 -5 -4 -4 -1 -2 -4 -4 -6 -7 -6 -7 -7 -7 -7 -7 -7 -7 -7 -7 -6 -6 -6 -6 -5 -4
-5 -5 -4 -6 -4 -5 -5 -7 -5 -7 -9 -9 -9 -8 -8 -10 -7 -8 -6 -5 -1 -2 -4 -2 -5 -7 -9 -9 -8 -8 -8 -8 -8 -8 -8 -8 -8 -7 -7 -7 -7 -7 -6 -6
-6 -6 -5 -5 -5 -4 -5 -8 -5 -9 -10 -10 -8 -9 -10 -9 -8 -6 -8 -4 -5 -4 -5 -6 -10 -10 -10 -11 -8 -8 -8 -8 -8 -8 -8 -8 -8 -8 -7 -7 -7 -7 -7 -7
-7 -7 -6 -7 -7 -6 -7 -8 -6 -6 -8 -10 -10 -9 -8 -9 -7 -7 -7 -7 -7 -7 -7 -7 -9 -10 -10 -8 -8 -8 -8 -8 -9 -8 -8 -8 -9 -8 -7 -8 -8 -8 -8 -8

GFSNW_925_temp_219.txt.gz
Temp
11 10 10 9 9 10 10 8 10 11 12 9 5 9 11 11 11 11 11 11 11 11 11 10 11 12 11 10 11 12 11 8 8 9 11 11 11 11 9 7 8 5 4 8
10 10 10 9 9 9 8 5 5 11 11 9 7 9 11 11 11 11 10 10 10 10 11 10 10 11 10 9 10 11 11 8 6 9 10 11 10 11 10 9 8 7 8 10
10 10 10 9 9 9 8 5 8 7 5 5 8 9 10 10 11 10 10 10 10 10 9 9 9 9 10 8 10 11 10 8 9 8 10 8 8 9 8 8 8 8 9 10
10 10 9 9 9 9 8 4 7 6 8 7 8 9 9 9 10 9 9 9 8 8 8 8 9 8 7 8 8 9 8 7 7 8 8 7 8 7 7 7 7 6 9 8
10 10 9 8 8 9 8 6 6 4 5 6 8 7 8 9 9 9 9 8 7 7 7 8 7 7 7 7 6 7 6 7 7 8 8 7 6 7 7 7 7 6 7 7
10 10 8 8 8 8 6 4 5 5 5 5 6 6 8 8 8 8 7 7 6 6 6 6 6 5 6 6 6 5 5 5 5 5 5 6 6 8 8 8 9 7 6 6
10 10 8 7 7 8 8 6 5 4 7 5 6 8 7 7 7 7 7 7 7 7 6 5 4 3 3 3 3 4 4 5 5 3 4 4 8 7 7 8 6 6 7 6
10 10 9 6 6 7 7 7 6 4 6 5 6 7 7 6 6 6 6 7 6 5 5 5 5 6 6 5 4 3 4 4 4 3 3 5 8 7 7 7 5 5 5 5
10 9 7 5 5 6 6 6 6 5 3 4 6 5 6 4 4 5 6 6 6 5 4 5 5 6 6 7 6 3 3 3 3 4 5 5 6 5 6 6 6 4 4 4
8 6 5 4 4 5 6 5 6 5 4 3 5 5 5 4 4 4 4 4 5 5 4 5 5 5 4 5 5 5 3 2 4 4 5 5 5 5 5 7 4 4 4 4
8 5 3 3 3 3 4 4 4 5 3 3 4 5 4 4 4 4 4 4 3 3 4 4 4 3 2 2 3 5 4 4 3 3 4 3 5 5 4 4 4 4 5 6
6 4 3 3 3 3 3 3 3 3 3 3 3 4 4 5 5 3 3 3 3 3 2 -0 1 3 -0 1 2 2 3 3 2 2 4 4 4 4 4 3 3 3 3 4
5 4 3 3 3 2 2 2 2 3 2 1 2 3 3 3 4 4 3 1 2 2 1 0 1 1 1 0 -0 2 3 2 1 2 3 2 2 2 2 2 2 3 2 1
4 3 3 3 2 2 1 1 2 3 1 1 2 3 3 3 4 3 4 3 2 1 -0 1 -0 1 1 -0 0 -0 1 2 1 0 1 1 2 3 2 1 1 0 0 1
4 4 3 2 2 1 1 2 1 2 2 1 1 1 2 3 3 3 2 2 0 -0 1 -0 -1 -0 -1 -2 -1 -2 -1 -1 -1 -1 0 -0 0 1 0 -0 -1 -1 -1 -1
4 3 3 2 2 2 1 0 2 2 3 0 -0 0 1 2 2 2 1 1 -1 -1 -0 -1 -1 -1 -1 -3 -1 -2 -2 -2 -1 -2 -1 -2 -2 -1 -1 -2 -3 -2 -2 -1
3 3 2 2 2 2 2 1 2 2 2 -1 -4 -3 0 1 1 -0 -1 0 -1 -1 -1 -3 -1 -1 -0 -3 -2 -2 -2 -3 -2 -2 -3 -2 -2 -3 -3 -3 -3 -3 -3 -3
2 1 1 2 2 1 1 0 1 2 1 -1 -4 -3 -1 0 0 -0 -1 -1 -1 -2 -2 -1 -2 -1 -2 -2 -2 -3 -3 -3 -4 -3 -4 -4 -4 -4 -3 -3 -3 -4 -4 -3
1 1 1 1 1 0 0 0 1 1 1 -3 -4 -2 -1 -1 -2 -1 -1 -0 -1 -1 -1 -1 0 -1 -3 -2 -3 -4 -4 -4 -5 -5 -5 -4 -5 -5 -4 -4 -5 -4 -4 -3
1 2 1 -1 -1 -0 0 1 -2 -4 -5 -6 -4 -2 -2 -2 -4 -3 -3 -6 -1 -4 -1 -0 -1 0 -1 -3 -3 -4 -4 -5 -5 -5 -5 -5 -6 -5 -6 -5 -5 -5 -4 -4
2 -2 -2 -2 -1 -0 -3 -4 -5 -7 -5 -4 -3 -2 -2 -2 -3 -4 -2 -6 -3 -6 -2 0 -1 -1 -3 -4 -4 -5 -5 -6 -6 -6 -6 -6 -6 -6 -6 -6 -5 -5 -5 -5
1 -0 -1 -0 -5 -6 -4 -8 -5 -5 -2 -3 -3 -1 -2 -4 -3 -4 -5 -5 -6 -5 -2 -0 -2 -3 -3 -5 -5 -6 -6 -7 -7 -7 -7 -7 -7 -7 -7 -6 -6 -6 -6 -6
1 -1 -5 -5 -6 -4 -4 -6 -5 -5 -3 -4 -3 -3 -5 -6 -5 -4 -7 -4 -4 -4 -4 -2 -4 -4 -4 -6 -6 -7 -7 -7 -7 -7 -7 -8 -8 -7 -7 -7 -7 -7 -6 -6
-4 -3 -4 -4 -5 -5 -4 -3 -4 -3 -4 -4 -5 -6 -6 -7 -4 -7 -6 -6 -4 -5 -3 -4 -7 -6 -6 -7 -7 -8 -8 -8 -8 -8 -8 -9 -8 -8 -8 -7 -7 -7 -7 -7
-5 -4 -4 -5 -4 -4 -5 -6 -4 -6 -7 -6 -6 -7 -7 -9 -8 -7 -6 -6 -6 -5 -5 -5 -6 -9 -10 -11 -10 -10 -9 -9 -9 -9 -9 -9 -9 -9 -8 -8 -8 -7 -8 -8
-5 -6 -5 -4 -4 -4 -4 -5 -5 -7 -8 -8 -9 -11 -10 -9 -9 -7 -9 -7 -8 -7 -8 -6 -11 -12 -14 -14 -10 -9 -9 -9 -9 -9 -9 -9 -9 -9 -9 -8 -8 -8 -8 -8
-5 -6 -5 -5 -5 -5 -6 -6 -6 -8 -7 -10 -12 -9 -8 -10 -10 -8 -8 -8 -9 -10 -9 -10 -12 -11 -12 -9 -9 -9 -9 -9 -9 -9 -9 -9 -9 -9 -9 -8 -8 -8 -8 -9

GFSNW_925_temp_222.txt.gz
Temp
11 11 10 10 11 11 11 8 10 12 12 9 5 9 10 11 11 10 10 11 11 10 10 10 11 11 10 8 9 10 10 7 8 9 10 10 10 11 9 10 8 6 5 8
11 11 10 10 11 10 9 5 5 12 11 10 8 9 10 10 11 10 10 10 10 10 10 10 10 9 9 8 10 10 10 8 6 9 10 9 9 10 9 8 7 6 8 9
11 11 11 10 10 10 9 5 8 7 5 4 8 9 10 10 10 10 10 9 9 9 9 9 9 9 9 8 9 10 9 7 8 8 10 8 7 9 8 7 8 8 8 8
11 11 11 10 9 9 9 4 7 6 8 7 7 8 8 9 10 9 8 8 8 8 8 8 8 7 7 8 7 8 7 7 6 7 7 7 8 7 7 6 6 5 7 6
11 11 11 9 9 9 9 8 6 3 5 5 8 7 8 8 9 8 9 8 7 7 7 8 7 7 6 6 6 6 5 6 6 6 7 6 6 6 6 6 6 5 5 6
11 11 10 10 8 8 8 5 5 7 6 5 6 7 8 8 8 7 8 7 6 6 6 6 5 5 6 6 6 5 5 5 5 4 5 5 5 7 7 7 4 6 6 5
11 11 11 10 8 7 9 7 6 7 9 6 7 7 7 7 7 8 7 6 6 7 6 5 5 3 3 3 3 4 4 4 4 3 3 4 8 6 6 5 5 5 5 4
11 11 11 10 8 6 7 8 7 6 9 7 6 6 6 6 6 6 6 6 5 5 5 5 5 6 6 4 3 2 3 4 4 3 3 4 6 5 5 6 5 4 3 4
11 11 10 10 8 5 4 6 7 6 7 7 6 6 5 5 4 5 5 6 5 5 5 5 6 6 6 6 5 2 3 2 3 3 4 5 4 4 5 5 5 4 4 4
11 11 10 8 6 3 4 4 5 5 4 3 4 5 4 4 4 4 4 5 5 5 4 6 5 5 4 5 5 4 2 2 2 3 4 4 4 3 4 6 3 4 3 3
11 10 8 5 4 3 4 3 3 4 2 2 3 4 4 4 4 4 4 5 3 3 4 5 5 4 2 2 3 4 3 3 2 2 3 2 2 3 3 2 2 2 2 2
9 9 7 4 3 3 3 2 2 2 1 1 1 3 3 4 5 4 3 3 3 3 3 1 2 3 -0 1 3 2 3 2 2 2 3 3 3 3 3 2 1 1 1 1
9 8 4 4 3 2 2 2 1 1 0 0 1 2 3 4 4 4 3 2 3 2 1 1 1 2 1 1 1 1 2 1 1 2 2 0 1 2 1 0 0 0 0 -1
8 5 4 3 3 2 2 1 1 1 -0 0 2 2 3 3 3 3 4 3 2 1 0 1 1 2 1 0 0 0 1 0 -0 -1 -0 -0 1 1 -0 -0 -1 -1 -2 -2
5 4 4 3 2 2 2 1 1 2 2 1 0 1 2 2 2 2 3 3 1 0 1 -0 -0 0 -0 -2 -1 -2 -2 -2 -2 -1 -1 -2 -1 -1 -1 -2 -3 -3 -3 -3
4 4 4 2 2 2 1 0 1 1 2 -0 0 0 1 2 2 1 1 1 -1 -0 0 -1 -1 -1 -1 -2 -1 -2 -3 -3 -2 -3 -2 -3 -3 -2 -2 -4 -4 -4 -3 -3
4 3 3 2 2 1 1 1 2 1 2 -0 -3 -2 0 1 0 -0 -1 -0 -1 -1 -1 -2 -1 -1 -0 -2 -2 -3 -3 -4 -4 -4 -4 -4 -3 -4 -4 -4 -4 -4 -4 -4
3 3 2 1 0 1 0 0 1 2 1 -1 -5 -4 -2 -0 -0 -1 -1 -1 -1 -2 -1 -1 -1 -1 -2 -2 -2 -3 -4 -5 -5 -4 -5 -5 -5 -5 -5 -5 -5 -5 -5 -5
1 -0 -0 0 1 0 -0 1 2 2 1 -4 -6 -3 -2 -1 -2 -1 -1 -1 -2 -1 -0 -0 -0 -1 -2 -2 -4 -4 -5 -5 -5 -5 -6 -5 -6 -6 -6 -6 -6 -6 -6 -5
0 2 1 -1 -0 -0 1 1 -1 -4 -5 -7 -5 -3 -2 -2 -3 -3 -2 -4 -1 -4 -1 -1 -1 0 -2 -4 -5 -5 -6 -6 -6 -6 -6 -6 -6 -6 -7 -7 -6 -6 -6 -6
2 -2 -1 -1 -0 0 -2 -4 -5 -8 -6 -5 -4 -3 -3 -2 -3 -3 -2 -4 -4 -4 -2 -0 -1 -1 -3 -5 -5 -6 -7 -7 -7 -7 -7 -7 -7 -7 -7 -7 -7 -6 -6 -6
1 -1 -1 -0 -3 -4 -3 -8 -7 -6 -4 -6 -5 -3 -2 -3 -2 -4 -5 -6 -6 -4 -2 -1 -2 -3 -4 -5 -6 -7 -7 -7 -8 -7 -8 -8 -8 -8 -8 -8 -7 -7 -7 -7
2 -1 -4 -5 -6 -4 -4 -7 -8 -7 -5 -3 -3 -4 -4 -5 -5 -5 -6 -4 -3 -3 -4 -2 -4 -4 -5 -7 -7 -7 -7 -8 -8 -8 -8 -8 -8 -8 -8 -8 -7 -8 -7 -7
-4 -4 -3 -4 -4 -7 -6 -4 -4 -3 -3 -4 -4 -5 -5 -6 -6 -7 -4 -4 -4 -5 -5 -4 -7 -7 -7 -8 -8 -9 -9 -9 -9 -9 -9 -9 -9 -9 -9 -8 -8 -8 -8 -8
-4 -3 -4 -5 -4 -4 -5 -5 -4 -6 -6 -6 -6 -6 -6 -7 -6 -7 -5 -5 -6 -5 -5 -6 -7 -9 -11 -12 -12 -11 -10 -10 -10 -10 -10 -10 -10 -10 -9 -9 -8 -9 -8 -8
-6 -6 -5 -3 -3 -4 -4 -5 -5 -6 -7 -7 -7 -9 -8 -9 -9 -7 -8 -7 -7 -6 -8 -8 -10 -10 -14 -16 -11 -10 -9 -10 -10 -10 -10 -10 -10 -10 -10 -9 -9 -9 -9 -9
-5 -6 -4 -4 -4 -5 -5 -5 -6 -8 -7 -8 -9 -7 -7 -10 -10 -8 -8 -8 -9 -10 -9 -10 -12 -12 -12 -10 -9 -9 -9 -10 -10 -10 -9 -10 -10 -10 -10 -10 -9 -9 -9 -9